Time,TemperatureF,DewpointF,PressureIn,WindDirection,WindDirectionDegrees,WindSpeedMPH,WindSpeedGustMPH,Humidity,HourlyPrecipIn,Conditions,Clouds,dailyrainin,SoftwareType,DateUTC
2013-04-29 00:01:00,65.4,60.0,30.11,SE,134,9.0,12.0,82,0.00,,,0.00,weatherlink.com 1.10,2013-04-29 04:01:00,
2013-04-29 00:16:00,65.6,60.0,30.11,SSE,155,10.0,13.0,81,0.00,,,0.00,weatherlink.com 1.10,2013-04-29 04:16:00,
2013-04-29 00:31:00,65.7,60.0,30.10,South,171,7.0,17.0,82,0.00,,,0.00,weatherlink.com 1.10,2013-04-29 04:31:00,
2013-04-29 00:47:00,65.6,60.0,30.11,SSE,167,10.0,13.0,81,0.00,,,0.00,weatherlink.com 1.10,2013-04-29 04:47:00,
2013-04-29 01:02:00,65.4,59.0,30.11,South,173,4.0,13.0,81,0.00,,,0.00,weatherlink.com 1.10,2013-04-29 05:02:00,
2013-04-29 01:17:00,65.3,59.0,30.10,SSE,165,5.0,11.0,81,0.00,,,0.00,weatherlink.com 1.10,2013-04-29 05:17:00,
2013-04-29 01:32:00,65.4,59.0,30.10,South,189,6.0,11.0,81,0.00,,,0.00,weatherlink.com 1.10,2013-04-29 05:32:00,
2013-04-29 01:47:00,65.4,59.0,30.10,South,171,2.0,11.0,80,0.00,,,0.00,weatherlink.com 1.10,2013-04-29 05:47:00,
2013-04-29 02:02:00,65.4,59.0,30.09,SSE,160,8.0,13.0,81,0.00,,,0.00,weatherlink.com 1.10,2013-04-29 06:02:00,
2013-04-29 02:17:00,65.5,59.0,30.09,South,186,7.0,13.0,80,0.00,,,0.00,weatherlink.com 1.10,2013-04-29 06:17:00,
2013-04-29 02:32:00,65.5,60.0,30.08,SE,144,3.0,10.0,81,0.00,,,0.00,weatherlink.com 1.10,2013-04-29 06:32:00,
2013-04-29 02:47:00,65.3,60.0,30.08,SSE,163,5.0,9.0,82,0.00,,,0.00,weatherlink.com 1.10,2013-04-29 06:47:00,
2013-04-29 03:02:00,65.1,60.0,30.07,SSE,164,2.0,8.0,82,0.00,,,0.00,weatherlink.com 1.10,2013-04-29 07:02:00,
2013-04-29 03:17:00,65.0,59.0,30.07,SSE,154,6.0,11.0,82,0.00,,,0.00,weatherlink.com 1.10,2013-04-29 07:17:00,
2013-04-29 03:32:00,65.0,59.0,30.06,South,173,4.0,11.0,82,0.00,,,0.00,weatherlink.com 1.10,2013-04-29 07:32:00,
2013-04-29 03:47:00,64.9,60.0,30.06,SSE,161,3.0,9.0,83,0.00,,,0.00,weatherlink.com 1.10,2013-04-29 07:47:00,
2013-04-29 04:02:00,64.7,59.0,30.06,SSE,160,0.0,7.0,83,0.00,,,0.00,weatherlink.com 1.10,2013-04-29 08:02:00,
2013-04-29 04:17:00,64.5,59.0,30.06,SSE,157,2.0,7.0,83,0.00,,,0.00,weatherlink.com 1.10,2013-04-29 08:17:00,
2013-04-29 04:32:00,64.4,60.0,30.05,SSE,158,5.0,6.0,84,0.00,,,0.00,weatherlink.com 1.10,2013-04-29 08:32:00,
2013-04-29 04:47:00,64.5,59.0,30.05,SE,145,3.0,8.0,83,0.00,,,0.00,weatherlink.com 1.10,2013-04-29 08:47:00,
2013-04-29 05:02:00,64.5,59.0,30.05,SE,126,8.0,10.0,83,0.00,,,0.00,weatherlink.com 1.10,2013-04-29 09:02:00,
2013-04-29 05:17:00,64.3,60.0,30.05,SSE,156,3.0,9.0,85,0.00,,,0.00,weatherlink.com 1.10,2013-04-29 09:17:00,
2013-04-29 05:32:00,63.5,59.0,30.05,South,171,3.0,7.0,86,0.01,,,0.01,weatherlink.com 1.10,2013-04-29 09:32:00,
2013-04-29 05:47:00,63.0,59.0,30.05,SE,146,2.0,6.0,88,0.01,,,0.01,weatherlink.com 1.10,2013-04-29 09:47:00,
2013-04-29 06:02:00,62.9,59.0,30.05,SE,136,5.0,8.0,88,0.01,,,0.01,weatherlink.com 1.10,2013-04-29 10:02:00,
2013-04-29 06:17:00,63.0,59.0,30.05,SSE,152,3.0,9.0,88,0.02,,,0.02,weatherlink.com 1.10,2013-04-29 10:17:00,
2013-04-29 06:32:00,63.3,59.0,30.05,SSE,161,5.0,8.0,87,0.01,,,0.02,weatherlink.com 1.10,2013-04-29 10:32:00,
2013-04-29 06:47:00,63.4,60.0,30.05,South,169,6.0,9.0,87,0.01,,,0.02,weatherlink.com 1.10,2013-04-29 10:47:00,
2013-04-29 07:02:00,63.6,60.0,30.05,SSW,194,5.0,12.0,88,0.01,,,0.02,weatherlink.com 1.10,2013-04-29 11:02:00,
2013-04-29 07:17:00,63.8,60.0,30.05,SSE,151,6.0,12.0,88,0.00,,,0.02,weatherlink.com 1.10,2013-04-29 11:17:00,
2013-04-29 07:32:00,63.8,60.0,30.06,SSE,157,2.0,8.0,88,0.01,,,0.03,weatherlink.com 1.10,2013-04-29 11:32:00,
2013-04-29 07:47:00,63.6,60.0,30.06,SSE,162,4.0,7.0,88,0.04,,,0.06,weatherlink.com 1.10,2013-04-29 11:47:00,
2013-04-29 08:02:00,63.3,60.0,30.07,South,173,5.0,7.0,89,0.07,,,0.09,weatherlink.com 1.10,2013-04-29 12:02:00,
2013-04-29 08:17:00,63.1,60.0,30.07,SE,134,7.0,7.0,89,0.07,,,0.09,weatherlink.com 1.10,2013-04-29 12:17:00,
2013-04-29 08:32:00,63.1,60.0,30.07,SSE,161,0.0,8.0,89,0.07,,,0.10,weatherlink.com 1.10,2013-04-29 12:32:00,
2013-04-29 08:47:00,63.1,60.0,30.07,SSE,150,1.0,9.0,90,0.05,,,0.11,weatherlink.com 1.10,2013-04-29 12:47:00,
2013-04-29 09:02:00,63.2,60.0,30.07,SE,132,2.0,8.0,89,0.05,,,0.14,weatherlink.com 1.10,2013-04-29 13:02:00,
2013-04-29 09:17:00,63.0,60.0,30.07,South,169,2.0,10.0,89,0.10,,,0.19,weatherlink.com 1.10,2013-04-29 13:17:00,
2013-04-29 09:32:00,62.8,60.0,30.07,SSE,167,4.0,10.0,90,0.16,,,0.27,weatherlink.com 1.10,2013-04-29 13:32:00,
2013-04-29 09:47:00,62.8,60.0,30.07,SSE,167,5.0,9.0,90,0.24,,,0.35,weatherlink.com 1.10,2013-04-29 13:47:00,
2013-04-29 10:02:00,62.8,60.0,30.08,SSE,149,4.0,8.0,90,0.31,,,0.45,weatherlink.com 1.10,2013-04-29 14:02:00,
2013-04-29 10:17:00,62.6,60.0,30.07,SE,128,3.0,8.0,90,0.35,,,0.54,weatherlink.com 1.10,2013-04-29 14:17:00,
2013-04-29 10:32:00,62.6,60.0,30.08,SE,126,0.0,5.0,90,0.33,,,0.60,weatherlink.com 1.10,2013-04-29 14:32:00,
2013-04-29 10:47:00,62.6,60.0,30.07,ESE,109,0.0,4.0,90,0.31,,,0.67,weatherlink.com 1.10,2013-04-29 14:47:00,
2013-04-29 11:02:00,62.7,60.0,30.06,East,88,3.0,8.0,90,0.29,,,0.75,weatherlink.com 1.10,2013-04-29 15:02:00,
2013-04-29 11:17:00,62.9,60.0,30.06,SSE,164,2.0,8.0,90,0.27,,,0.81,weatherlink.com 1.10,2013-04-29 15:17:00,
2013-04-29 11:32:00,63.0,60.0,30.06,East,92,1.0,8.0,90,0.24,,,0.84,weatherlink.com 1.10,2013-04-29 15:32:00,
2013-04-29 11:47:00,63.1,60.0,30.06,East,96,5.0,6.0,90,0.19,,,0.87,weatherlink.com 1.10,2013-04-29 15:47:00,
2013-04-29 12:02:00,63.2,60.0,30.05,East,83,0.0,6.0,90,0.14,,,0.89,weatherlink.com 1.10,2013-04-29 16:02:00,
2013-04-29 12:17:00,63.3,60.0,30.06,East,80,0.0,4.0,90,0.09,,,0.90,weatherlink.com 1.10,2013-04-29 16:17:00,
2013-04-29 12:32:00,63.3,60.0,30.05,East,79,0.0,2.0,90,0.06,,,0.90,weatherlink.com 1.10,2013-04-29 16:32:00,
2013-04-29 12:47:00,63.5,61.0,30.06,NE,43,0.0,4.0,90,0.05,,,0.92,weatherlink.com 1.10,2013-04-29 16:47:00,
2013-04-29 13:02:00,64.1,61.0,30.05,SE,131,0.0,7.0,90,0.03,,,0.92,weatherlink.com 1.10,2013-04-29 17:02:00,
2013-04-29 13:17:00,64.6,62.0,30.04,ESE,110,0.0,4.0,90,0.02,,,0.92,weatherlink.com 1.10,2013-04-29 17:17:00,
2013-04-29 13:32:00,65.2,62.0,30.02,SE,141,2.0,7.0,90,0.02,,,0.92,weatherlink.com 1.10,2013-04-29 17:32:00,
2013-04-29 13:47:00,65.4,63.0,30.02,SE,134,3.0,10.0,90,0.00,,,0.92,weatherlink.com 1.10,2013-04-29 17:47:00,
2013-04-29 14:02:00,65.7,63.0,30.01,ESE,123,3.0,9.0,90,0.00,,,0.92,weatherlink.com 1.10,2013-04-29 18:02:00,
2013-04-29 14:17:00,65.6,63.0,30.02,ESE,114,0.0,8.0,90,0.00,,,0.92,weatherlink.com 1.10,2013-04-29 18:17:00,
2013-04-29 14:32:00,65.6,63.0,30.01,ESE,116,0.0,5.0,90,0.00,,,0.92,weatherlink.com 1.10,2013-04-29 18:32:00,
2013-04-29 14:47:00,65.6,62.0,30.01,SE,134,2.0,7.0,89,0.00,,,0.92,weatherlink.com 1.10,2013-04-29 18:47:00,
2013-04-29 15:02:00,65.3,62.0,30.01,SE,127,0.0,3.0,90,0.00,,,0.92,weatherlink.com 1.10,2013-04-29 19:02:00,
2013-04-29 15:17:00,64.8,62.0,30.00,SE,127,0.0,1.0,90,0.00,,,0.92,weatherlink.com 1.10,2013-04-29 19:17:00,
2013-04-29 15:32:00,64.9,62.0,30.00,SE,127,0.0,3.0,90,0.00,,,0.92,weatherlink.com 1.10,2013-04-29 19:32:00,
2013-04-29 15:47:00,65.6,63.0,29.99,SE,126,0.0,2.0,90,0.00,,,0.92,weatherlink.com 1.10,2013-04-29 19:47:00,
2013-04-29 16:02:00,66.9,64.0,29.98,SE,127,0.0,3.0,89,0.00,,,0.92,weatherlink.com 1.10,2013-04-29 20:02:00,
2013-04-29 16:18:00,67.9,65.0,29.98,SE,127,0.0,3.0,89,0.00,,,0.92,weatherlink.com 1.10,2013-04-29 20:18:00,
2013-04-29 16:33:00,69.1,66.0,29.98,SE,127,0.0,3.0,88,0.00,,,0.92,weatherlink.com 1.10,2013-04-29 20:33:00,
2013-04-29 16:48:00,70.2,66.0,29.98,SE,128,0.0,3.0,86,0.00,,,0.92,weatherlink.com 1.10,2013-04-29 20:48:00,
2013-04-29 17:03:00,69.7,65.0,29.98,South,171,3.0,7.0,86,0.00,,,0.92,weatherlink.com 1.10,2013-04-29 21:03:00,
2013-04-29 17:18:00,68.5,65.0,29.99,South,181,3.0,8.0,87,0.00,,,0.92,weatherlink.com 1.10,2013-04-29 21:18:00,
2013-04-29 17:33:00,67.4,64.0,29.99,South,187,2.0,7.0,87,0.00,,,0.92,weatherlink.com 1.10,2013-04-29 21:33:00,
2013-04-29 17:48:00,66.6,63.0,29.99,SSW,206,3.0,8.0,88,0.00,,,0.92,weatherlink.com 1.10,2013-04-29 21:48:00,
2013-04-29 18:03:00,65.6,62.0,30.00,SSW,200,0.0,6.0,88,0.00,,,0.92,weatherlink.com 1.10,2013-04-29 22:03:00,
2013-04-29 18:18:00,65.1,62.0,30.00,South,191,0.0,5.0,89,0.00,,,0.92,weatherlink.com 1.10,2013-04-29 22:18:00,
2013-04-29 18:33:00,65.1,62.0,29.99,South,191,0.0,0.0,89,0.00,,,0.92,weatherlink.com 1.10,2013-04-29 22:33:00,
2013-04-29 18:48:00,65.0,62.0,29.99,South,191,0.0,1.0,89,0.00,,,0.92,weatherlink.com 1.10,2013-04-29 22:48:00,
2013-04-29 19:03:00,64.6,61.0,29.99,South,191,0.0,0.0,89,0.00,,,0.92,weatherlink.com 1.10,2013-04-29 23:03:00,
2013-04-29 19:18:00,64.5,61.0,30.00,South,191,0.0,2.0,89,0.00,,,0.92,weatherlink.com 1.10,2013-04-29 23:18:00,
2013-04-29 19:33:00,64.5,61.0,30.01,South,191,0.0,0.0,89,0.00,,,0.92,weatherlink.com 1.10,2013-04-29 23:33:00,
2013-04-29 19:48:00,64.5,61.0,30.01,South,191,0.0,1.0,89,0.00,,,0.92,weatherlink.com 1.10,2013-04-29 23:48:00,
2013-04-29 20:03:00,64.3,61.0,30.01,South,191,0.0,0.0,89,0.00,,,0.92,weatherlink.com 1.10,2013-04-30 00:03:00,
2013-04-29 20:18:00,64.0,61.0,30.01,South,191,0.0,1.0,90,0.00,,,0.92,weatherlink.com 1.10,2013-04-30 00:18:00,
2013-04-29 20:33:00,64.0,61.0,30.01,South,191,0.0,1.0,90,0.00,,,0.92,weatherlink.com 1.10,2013-04-30 00:33:00,
2013-04-29 20:48:00,64.0,61.0,30.01,South,191,0.0,1.0,90,0.00,,,0.92,weatherlink.com 1.10,2013-04-30 00:48:00,
2013-04-29 21:03:00,64.0,61.0,30.01,South,191,0.0,0.0,90,0.00,,,0.92,weatherlink.com 1.10,2013-04-30 01:03:00,
2013-04-29 21:18:00,64.0,61.0,30.02,South,191,0.0,2.0,90,0.01,,,0.93,weatherlink.com 1.10,2013-04-30 01:18:00,
2013-04-29 21:33:00,64.0,61.0,30.02,South,191,0.0,0.0,90,0.02,,,0.94,weatherlink.com 1.10,2013-04-30 01:33:00,
2013-04-29 21:48:00,64.1,61.0,30.01,South,191,1.0,3.0,90,0.02,,,0.94,weatherlink.com 1.10,2013-04-30 01:48:00,
2013-04-29 22:03:00,64.1,61.0,30.01,South,191,0.0,3.0,90,0.03,,,0.95,weatherlink.com 1.10,2013-04-30 02:03:00,
2013-04-29 22:18:00,64.1,61.0,30.01,SSW,192,0.0,1.0,90,0.02,,,0.95,weatherlink.com 1.10,2013-04-30 02:18:00,
2013-04-29 22:33:00,64.2,61.0,30.00,South,191,0.0,2.0,90,0.01,,,0.95,weatherlink.com 1.10,2013-04-30 02:33:00,
2013-04-29 22:48:00,64.2,61.0,30.00,South,191,0.0,3.0,90,0.01,,,0.95,weatherlink.com 1.10,2013-04-30 02:48:00,
2013-04-29 23:03:00,64.3,61.0,29.99,South,188,1.0,4.0,90,0.00,,,0.95,weatherlink.com 1.10,2013-04-30 03:03:00,
2013-04-29 23:18:00,64.1,61.0,29.99,South,188,0.0,3.0,90,0.00,,,0.95,weatherlink.com 1.10,2013-04-30 03:18:00,
2013-04-29 23:33:00,64.0,61.0,30.00,South,188,0.0,1.0,90,0.00,,,0.95,weatherlink.com 1.10,2013-04-30 03:33:00,
2013-04-29 23:48:00,63.9,61.0,30.00,South,188,0.0,0.0,90,0.00,,,0.95,weatherlink.com 1.10,2013-04-30 03:48:00,